Flag for Canada Weather past 2 weeks in Mississauga, Ontario, Canada

Now
52 °F

Broken clouds.


Feels Like: 46 °F
Forecast: N/A
Wind: 18 mph from Northwest

Location: Toronto Pearson International Airport

Current Time: Apr 26, 2015 at 7:00:21 PM

Latest Report: Apr 26, 2015 at 6:00 PM


Visibility: 15 mi

Pressure: 29.83 "Hg

Humidity: 47%

Dew point: 32 °F

Location of MississaugaLocation

Historic Weather in Mississauga — Graph

°F

Mississauga temperature yesterday

Maximum temperature yesterday: 52 °F (at 4:00 PM)
Minimum temperature yesterday: 27 °F (at 6:00 AM)
Average temperature yesterday: 40 °F

Past Weeks' High & Low Weather Summary

 TemperatureHumidityPressure
High73 °F (Apr 13, 5:00 PM)100% (Apr 17, 4:00 AM)30.42 "Hg (Apr 17, 4:00 AM)
Low27 °F (Apr 25, 6:00 AM)19% (Apr 14, 3:00 PM)29.36 "Hg (Apr 20, 5:00 PM)
Average47 °F59%29.96 "Hg
* Reported Apr 11 6:00 PM — Apr 26 6:00 PM, Mississauga, Weather by CustomWeather, © 2015

Note: Actual official high and low records may vary slightly from our data, if they occured in-between our weather recording intervals... More about our weather records

Advertising

Mississauga weather history for previous 24 hours

 ConditionsComfort  
Time TempWeatherWind HumidityBarometerVisibility
6:00 PM
Sun, Apr 26
52 °FBroken clouds.18 mph47%29.83 "Hg15 mi
5:00 PM52 °FPartly sunny.18 mph47%29.82 "Hg15 mi
4:00 PM54 °FBroken clouds.18 mph47%29.83 "Hg15 mi
3:00 PM54 °FBroken clouds.16 mph47%29.83 "Hg15 mi
2:00 PM54 °FPartly sunny.22 mph44%29.82 "Hg15 mi
1:00 PM52 °FPartly sunny.10 mph50%29.83 "Hg15 mi
12:00 PM50 °FPartly sunny.14 mph50%29.84 "Hg15 mi
11:00 AM50 °FScattered clouds.10 mph54%29.86 "Hg15 mi
10:00 AM46 °FScattered clouds.13 mph57%29.87 "Hg15 mi
9:00 AM45 °FScattered clouds.12 mph57%29.87 "Hg15 mi
8:00 AM39 °FScattered clouds.9 mph70%29.88 "Hg15 mi
7:00 AM37 °FPassing clouds.8 mph70%29.86 "Hg15 mi
6:00 AM36 °FPassing clouds.8 mph75%29.84 "Hg15 mi
5:00 AM36 °FPassing clouds.8 mph75%29.83 "Hg15 mi
4:00 AM36 °FPassing clouds.14 mph75%29.81 "Hg15 mi
3:00 AM36 °FPassing clouds.14 mph75%29.81 "Hg15 mi
2:00 AM36 °FPassing clouds.12 mph70%29.81 "Hg15 mi
1:45 AM37 °FPassing clouds.13 mph70%29.81 "Hg15 mi
1:00 AM37 °FPassing clouds.16 mph65%29.82 "Hg15 mi
12:00 AM39 °FPassing clouds.16 mph61%29.83 "Hg15 mi
11:00 PM
Sat, Apr 25
41 °FPassing clouds.14 mph57%29.84 "Hg15 mi
10:00 PM41 °FPassing clouds.12 mph57%29.85 "Hg15 mi
9:00 PM45 °FPassing clouds.16 mph49%29.85 "Hg15 mi
8:00 PM45 °FPassing clouds.6 mph46%29.82 "Hg15 mi
7:00 PM46 °FPassing clouds.9 mph43%29.81 "Hg15 mi
Weather by CustomWeather, © 2015

See weather overviewHow to use our weather pages